Time,TemperatureF,DewpointF,PressureIn,WindDirection,WindDirectionDegrees,WindSpeedMPH,WindSpeedGustMPH,Humidity,HourlyPrecipIn,Conditions,Clouds,dailyrainin,SoftwareType,DateUTC
2013-04-27 00:00:00,50.7,46.7,30.27,East,96,0.0,2.0,86,0.00,,---,0.00,VWS V14.01,2013-04-27 05:00:00,
2013-04-27 00:01:00,50.6,46.6,30.27,East,96,0.0,1.0,86,0.00,,---,0.00,VWS V14.01,2013-04-27 05:01:00,
2013-04-27 00:06:00,50.6,46.6,30.27,East,96,0.0,2.0,86,0.00,,---,0.00,VWS V14.01,2013-04-27 05:06:00,
2013-04-27 00:10:00,50.6,46.6,30.27,East,96,0.0,2.0,86,0.00,,---,0.00,VWS V14.01,2013-04-27 05:10:00,
2013-04-27 00:11:00,50.6,46.6,30.27,East,96,0.0,2.0,86,0.00,,---,0.00,VWS V14.01,2013-04-27 05:11:00,
2013-04-27 00:16:00,50.5,46.5,30.27,East,92,1.0,5.0,86,0.00,,---,0.00,VWS V14.01,2013-04-27 05:16:00,
2013-04-27 00:20:00,50.5,46.5,30.27,ESE,119,0.0,5.0,86,0.00,,---,0.00,VWS V14.01,2013-04-27 05:20:00,
2013-04-27 00:21:00,50.5,46.5,30.27,ESE,119,0.0,1.0,86,0.00,,---,0.00,VWS V14.01,2013-04-27 05:21:00,
2013-04-27 00:26:00,50.5,46.5,30.28,North,5,0.0,3.0,86,0.00,,---,0.00,VWS V14.01,2013-04-27 05:26:00,
2013-04-27 00:30:00,50.5,46.5,30.28,East,80,0.0,3.0,86,0.00,,---,0.00,VWS V14.01,2013-04-27 05:30:00,
2013-04-27 00:31:00,50.4,46.4,30.28,SE,132,0.0,2.0,86,0.00,,---,0.00,VWS V14.01,2013-04-27 05:31:00,
2013-04-27 00:36:00,50.4,46.4,30.27,SE,132,0.0,2.0,86,0.00,,---,0.00,VWS V14.01,2013-04-27 05:36:00,
2013-04-27 00:40:00,50.4,46.4,30.27,SE,132,0.0,2.0,86,0.00,,---,0.00,VWS V14.01,2013-04-27 05:40:00,
2013-04-27 00:41:00,50.4,46.4,30.27,SE,126,0.0,4.0,86,0.00,,---,0.00,VWS V14.01,2013-04-27 05:41:00,
2013-04-27 00:46:00,50.4,46.4,30.27,SE,126,0.0,4.0,86,0.00,,---,0.00,VWS V14.01,2013-04-27 05:46:00,
2013-04-27 00:50:00,50.3,46.3,30.28,SE,126,2.0,4.0,86,0.00,,---,0.00,VWS V14.01,2013-04-27 05:50:00,
2013-04-27 00:52:00,50.3,46.3,30.28,East,83,0.0,4.0,86,0.00,,---,0.00,VWS V14.01,2013-04-27 05:52:00,
2013-04-27 00:57:00,50.3,46.3,30.28,East,82,0.0,4.0,86,0.00,,---,0.00,VWS V14.01,2013-04-27 05:57:00,
2013-04-27 01:00:00,50.2,46.2,30.28,East,91,0.0,5.0,86,0.00,,---,0.00,VWS V14.01,2013-04-27 06:00:00,
2013-04-27 01:02:00,50.2,46.2,30.28,East,91,0.0,1.0,86,0.00,,---,0.00,VWS V14.01,2013-04-27 06:02:00,
2013-04-27 01:07:00,50.2,46.2,30.27,East,91,0.0,2.0,86,0.00,,---,0.00,VWS V14.01,2013-04-27 06:07:00,
2013-04-27 01:10:00,50.2,46.2,30.27,East,91,0.0,2.0,86,0.00,,---,0.00,VWS V14.01,2013-04-27 06:10:00,
2013-04-27 01:12:00,50.1,46.1,30.27,ESE,107,1.0,1.0,86,0.00,,---,0.00,VWS V14.01,2013-04-27 06:12:00,
2013-04-27 01:17:00,50.1,46.1,30.27,SE,127,0.0,5.0,86,0.00,,---,0.00,VWS V14.01,2013-04-27 06:17:00,
2013-04-27 01:20:00,50.1,46.1,30.28,SE,127,0.0,5.0,86,0.00,,---,0.00,VWS V14.01,2013-04-27 06:20:00,
2013-04-27 01:22:00,50.1,46.4,30.27,East,95,0.0,4.0,87,0.00,,---,0.00,VWS V14.01,2013-04-27 06:22:00,
2013-04-27 01:27:00,50.0,46.3,30.27,East,94,0.0,4.0,87,0.00,,---,0.00,VWS V14.01,2013-04-27 06:27:00,
2013-04-27 01:30:00,50.1,46.4,30.27,East,94,0.0,4.0,87,0.00,,---,0.00,VWS V14.01,2013-04-27 06:30:00,
2013-04-27 01:32:00,50.0,46.3,30.27,East,94,0.0,0.0,87,0.00,,---,0.00,VWS V14.01,2013-04-27 06:32:00,
2013-04-27 01:37:00,50.0,46.3,30.27,East,94,1.0,2.0,87,0.00,,---,0.00,VWS V14.01,2013-04-27 06:37:00,
2013-04-27 01:40:00,50.0,46.3,30.27,East,94,0.0,2.0,87,0.00,,---,0.00,VWS V14.01,2013-04-27 06:40:00,
2013-04-27 01:42:00,50.0,46.3,30.27,East,94,0.0,1.0,87,0.00,,---,0.00,VWS V14.01,2013-04-27 06:42:00,
2013-04-27 01:47:00,50.0,46.3,30.27,ESE,117,0.0,2.0,87,0.00,,---,0.00,VWS V14.01,2013-04-27 06:47:00,
2013-04-27 01:50:00,50.0,46.3,30.27,ESE,117,0.0,2.0,87,0.00,,---,0.00,VWS V14.01,2013-04-27 06:50:00,
2013-04-27 01:52:00,50.0,46.0,30.26,ESE,117,0.0,1.0,86,0.00,,---,0.00,VWS V14.01,2013-04-27 06:52:00,
2013-04-27 01:57:00,50.0,46.0,30.26,ESE,117,0.0,2.0,86,0.00,,---,0.00,VWS V14.01,2013-04-27 06:57:00,
2013-04-27 02:00:00,49.9,45.9,30.26,ESE,117,0.0,2.0,86,0.00,,---,0.00,VWS V14.01,2013-04-27 07:00:00,
2013-04-27 02:02:00,50.0,46.3,30.26,ESE,117,0.0,1.0,87,0.00,,---,0.00,VWS V14.01,2013-04-27 07:02:00,
2013-04-27 02:07:00,50.0,46.3,30.26,ESE,117,0.0,1.0,87,0.00,,---,0.00,VWS V14.01,2013-04-27 07:07:00,
2013-04-27 02:10:00,50.0,46.3,30.26,ESE,117,0.0,1.0,87,0.00,,---,0.00,VWS V14.01,2013-04-27 07:10:00,
2013-04-27 02:12:00,49.9,46.2,30.26,ESE,117,0.0,1.0,87,0.00,,---,0.00,VWS V14.01,2013-04-27 07:12:00,
2013-04-27 02:17:00,49.9,46.2,30.25,ESE,117,0.0,2.0,87,0.00,,---,0.00,VWS V14.01,2013-04-27 07:17:00,
2013-04-27 02:20:00,49.9,46.2,30.25,ESE,117,0.0,2.0,87,0.00,,---,0.00,VWS V14.01,2013-04-27 07:20:00,
2013-04-27 02:22:00,49.8,46.1,30.25,ESE,123,2.0,4.0,87,0.00,,---,0.00,VWS V14.01,2013-04-27 07:22:00,
2013-04-27 02:27:00,49.7,46.0,30.25,SE,125,2.0,4.0,87,0.00,,---,0.00,VWS V14.01,2013-04-27 07:27:00,
2013-04-27 02:30:00,49.7,46.0,30.25,SE,124,0.0,4.0,87,0.00,,---,0.00,VWS V14.01,2013-04-27 07:30:00,
2013-04-27 02:32:00,49.7,46.0,30.25,East,85,0.0,3.0,87,0.00,,---,0.00,VWS V14.01,2013-04-27 07:32:00,
2013-04-27 02:37:00,49.7,46.0,30.25,East,85,0.0,3.0,87,0.00,,---,0.00,VWS V14.01,2013-04-27 07:37:00,
2013-04-27 02:40:00,49.7,46.0,30.25,East,85,0.0,3.0,87,0.00,,---,0.00,VWS V14.01,2013-04-27 07:40:00,
2013-04-27 02:42:00,49.7,46.0,30.25,East,85,0.0,1.0,87,0.00,,---,0.00,VWS V14.01,2013-04-27 07:42:00,
2013-04-27 02:47:00,49.7,46.0,30.25,East,86,0.0,1.0,87,0.00,,---,0.00,VWS V14.01,2013-04-27 07:47:00,
2013-04-27 02:50:00,49.7,46.0,30.25,East,86,0.0,1.0,87,0.00,,---,0.00,VWS V14.01,2013-04-27 07:50:00,
2013-04-27 02:52:00,49.7,46.0,30.24,East,86,0.0,3.0,87,0.00,,---,0.00,VWS V14.01,2013-04-27 07:52:00,
2013-04-27 02:57:00,49.6,46.2,30.24,ENE,73,0.0,3.0,88,0.00,,---,0.00,VWS V14.01,2013-04-27 07:57:00,
2013-04-27 03:00:00,49.6,46.2,30.24,NE,51,2.0,3.0,88,0.00,,---,0.00,VWS V14.01,2013-04-27 08:00:00,
2013-04-27 03:02:00,49.6,46.2,30.24,East,91,0.0,3.0,88,0.00,,---,0.00,VWS V14.01,2013-04-27 08:02:00,
2013-04-27 03:07:00,49.5,46.1,30.24,SE,132,1.0,4.0,88,0.00,,---,0.00,VWS V14.01,2013-04-27 08:07:00,
2013-04-27 03:10:00,49.5,46.1,30.24,SE,131,2.0,4.0,88,0.00,,---,0.00,VWS V14.01,2013-04-27 08:10:00,
2013-04-27 03:12:00,49.5,46.1,30.24,SE,131,1.0,2.0,88,0.00,,---,0.00,VWS V14.01,2013-04-27 08:12:00,
2013-04-27 03:17:00,49.4,46.0,30.24,East,82,2.0,3.0,88,0.00,,---,0.00,VWS V14.01,2013-04-27 08:17:00,
2013-04-27 03:20:00,49.4,46.0,30.24,ESE,106,1.0,3.0,88,0.00,,---,0.00,VWS V14.01,2013-04-27 08:20:00,
2013-04-27 03:22:00,49.4,46.0,30.23,ESE,106,0.0,2.0,88,0.00,,---,0.00,VWS V14.01,2013-04-27 08:22:00,
2013-04-27 03:27:00,49.4,46.0,30.23,ESE,109,2.0,4.0,88,0.00,,---,0.00,VWS V14.01,2013-04-27 08:27:00,
2013-04-27 03:30:00,49.4,46.0,30.23,ESE,109,0.0,4.0,88,0.00,,---,0.00,VWS V14.01,2013-04-27 08:30:00,
2013-04-27 03:32:00,49.4,46.0,30.23,SSE,167,0.0,3.0,88,0.00,,---,0.00,VWS V14.01,2013-04-27 08:32:00,
2013-04-27 03:37:00,49.4,46.0,30.23,SE,132,0.0,3.0,88,0.00,,---,0.00,VWS V14.01,2013-04-27 08:37:00,
2013-04-27 03:40:00,49.4,46.0,30.23,SE,132,0.0,3.0,88,0.00,,---,0.00,VWS V14.01,2013-04-27 08:40:00,
2013-04-27 03:42:00,49.3,45.9,30.22,ENE,76,1.0,3.0,88,0.00,,---,0.00,VWS V14.01,2013-04-27 08:42:00,
2013-04-27 03:47:00,49.3,45.9,30.22,SE,126,0.0,4.0,88,0.00,,---,0.00,VWS V14.01,2013-04-27 08:47:00,
2013-04-27 03:50:00,49.3,45.9,30.22,SE,126,0.0,4.0,88,0.00,,---,0.00,VWS V14.01,2013-04-27 08:50:00,
2013-04-27 03:52:00,49.3,45.9,30.22,SE,126,0.0,1.0,88,0.00,,---,0.00,VWS V14.01,2013-04-27 08:52:00,
2013-04-27 03:57:00,49.3,45.9,30.22,SE,126,0.0,2.0,88,0.00,,---,0.00,VWS V14.01,2013-04-27 08:57:00,
2013-04-27 04:00:00,49.3,45.9,30.22,SE,126,0.0,2.0,88,0.00,,---,0.00,VWS V14.01,2013-04-27 09:00:00,
2013-04-27 04:02:00,49.2,45.8,30.22,ESE,105,0.0,2.0,88,0.00,,---,0.00,VWS V14.01,2013-04-27 09:02:00,
2013-04-27 04:07:00,49.2,45.8,30.21,ESE,108,1.0,2.0,88,0.00,,---,0.00,VWS V14.01,2013-04-27 09:07:00,
2013-04-27 04:10:00,49.2,45.8,30.21,ESE,108,0.0,2.0,88,0.00,,---,0.00,VWS V14.01,2013-04-27 09:10:00,
2013-04-27 04:12:00,49.1,45.7,30.21,East,79,2.0,4.0,88,0.00,,---,0.00,VWS V14.01,2013-04-27 09:12:00,
2013-04-27 04:17:00,49.1,45.7,30.21,ESE,116,0.0,4.0,88,0.00,,---,0.00,VWS V14.01,2013-04-27 09:17:00,
2013-04-27 04:20:00,49.1,45.7,30.21,ESE,116,1.0,4.0,88,0.00,,---,0.00,VWS V14.01,2013-04-27 09:20:00,
2013-04-27 04:22:00,49.1,45.7,30.21,East,85,0.0,4.0,88,0.00,,---,0.00,VWS V14.01,2013-04-27 09:22:00,
2013-04-27 04:27:00,49.1,45.7,30.21,ESE,102,0.0,4.0,88,0.00,,---,0.00,VWS V14.01,2013-04-27 09:27:00,
2013-04-27 04:30:00,49.0,45.6,30.21,ESE,102,0.0,4.0,88,0.00,,---,0.00,VWS V14.01,2013-04-27 09:30:00,
2013-04-27 04:32:00,49.0,45.9,30.20,ESE,119,0.0,2.0,89,0.00,,---,0.00,VWS V14.01,2013-04-27 09:32:00,
2013-04-27 04:37:00,49.0,45.9,30.20,ENE,59,0.0,3.0,89,0.00,,---,0.00,VWS V14.01,2013-04-27 09:37:00,
2013-04-27 04:40:00,49.0,45.9,30.20,ENE,59,0.0,3.0,89,0.00,,---,0.00,VWS V14.01,2013-04-27 09:40:00,
2013-04-27 04:42:00,48.9,45.8,30.20,ESE,109,0.0,1.0,89,0.00,,---,0.00,VWS V14.01,2013-04-27 09:42:00,
2013-04-27 04:47:00,48.9,45.8,30.20,ESE,108,0.0,4.0,89,0.00,,---,0.00,VWS V14.01,2013-04-27 09:47:00,
2013-04-27 04:50:00,48.9,45.8,30.20,ESE,108,0.0,4.0,89,0.00,,---,0.00,VWS V14.01,2013-04-27 09:50:00,
2013-04-27 04:52:00,48.8,45.7,30.20,ESE,108,0.0,2.0,89,0.00,,---,0.00,VWS V14.01,2013-04-27 09:52:00,
2013-04-27 04:57:00,48.8,45.7,30.20,NNE,21,0.0,2.0,89,0.00,,---,0.00,VWS V14.01,2013-04-27 09:57:00,
2013-04-27 05:00:00,48.8,45.7,30.20,NNE,21,0.0,2.0,89,0.00,,---,0.00,VWS V14.01,2013-04-27 10:00:00,
2013-04-27 05:02:00,48.7,45.6,30.20,NNE,21,0.0,2.0,89,0.00,,---,0.00,VWS V14.01,2013-04-27 10:02:00,
2013-04-27 05:07:00,48.7,45.9,30.20,East,88,3.0,3.0,90,0.00,,---,0.00,VWS V14.01,2013-04-27 10:07:00,
2013-04-27 05:10:00,48.7,45.9,30.20,East,88,0.0,3.0,90,0.00,,---,0.00,VWS V14.01,2013-04-27 10:10:00,
2013-04-27 05:13:00,48.6,45.5,30.20,SE,124,0.0,3.0,89,0.00,,---,0.00,VWS V14.01,2013-04-27 10:13:00,
2013-04-27 05:18:00,48.6,45.8,30.19,SSE,163,0.0,3.0,90,0.00,,---,0.00,VWS V14.01,2013-04-27 10:18:00,
2013-04-27 05:20:00,48.6,45.5,30.19,SSE,163,0.0,3.0,89,0.00,,---,0.00,VWS V14.01,2013-04-27 10:20:00,
2013-04-27 05:23:00,48.6,45.5,30.19,SE,125,0.0,4.0,89,0.00,,---,0.00,VWS V14.01,2013-04-27 10:23:00,
2013-04-27 05:28:00,48.6,45.5,30.20,ESE,118,2.0,4.0,89,0.00,,---,0.00,VWS V14.01,2013-04-27 10:28:00,
2013-04-27 05:30:00,48.6,45.5,30.20,ESE,118,1.0,4.0,89,0.00,,---,0.00,VWS V14.01,2013-04-27 10:30:00,
2013-04-27 05:33:00,48.6,45.8,30.20,NE,51,1.0,3.0,90,0.00,,---,0.00,VWS V14.01,2013-04-27 10:33:00,
2013-04-27 05:38:00,48.6,45.8,30.21,ENE,57,1.0,3.0,90,0.00,,---,0.00,VWS V14.01,2013-04-27 10:38:00,
2013-04-27 05:40:00,48.6,45.8,30.21,ENE,57,1.0,3.0,90,0.00,,---,0.00,VWS V14.01,2013-04-27 10:40:00,
2013-04-27 05:43:00,48.5,45.7,30.21,ENE,57,0.0,2.0,90,0.00,,---,0.00,VWS V14.01,2013-04-27 10:43:00,
2013-04-27 05:48:00,48.5,45.7,30.21,ENE,57,0.0,2.0,90,0.00,,---,0.00,VWS V14.01,2013-04-27 10:48:00,
2013-04-27 05:50:00,48.5,45.7,30.21,ENE,57,0.0,2.0,90,0.00,,---,0.00,VWS V14.01,2013-04-27 10:50:00,
2013-04-27 05:53:00,48.5,45.7,30.21,ENE,57,0.0,3.0,90,0.00,,---,0.00,VWS V14.01,2013-04-27 10:53:00,
2013-04-27 05:58:00,48.5,45.7,30.21,ENE,57,0.0,3.0,90,0.00,,---,0.00,VWS V14.01,2013-04-27 10:58:00,
2013-04-27 06:00:00,48.5,45.7,30.21,ENE,57,0.0,3.0,90,0.00,,---,0.00,VWS V14.01,2013-04-27 11:00:00,
2013-04-27 06:03:00,48.5,45.7,30.21,NNE,25,0.0,4.0,90,0.00,,---,0.00,VWS V14.01,2013-04-27 11:03:00,
2013-04-27 06:08:00,48.5,45.7,30.21,ESE,111,0.0,4.0,90,0.00,,---,0.00,VWS V14.01,2013-04-27 11:08:00,
2013-04-27 06:10:00,48.5,45.7,30.21,ESE,111,0.0,4.0,90,0.00,,---,0.00,VWS V14.01,2013-04-27 11:10:00,
2013-04-27 06:13:00,48.5,45.7,30.21,NE,53,0.0,4.0,90,0.00,,---,0.00,VWS V14.01,2013-04-27 11:13:00,
2013-04-27 06:18:00,48.5,45.7,30.22,NE,53,0.0,4.0,90,0.00,,---,0.00,VWS V14.01,2013-04-27 11:18:00,
2013-04-27 06:20:00,48.5,45.7,30.22,NE,53,0.0,4.0,90,0.00,,---,0.00,VWS V14.01,2013-04-27 11:20:00,
2013-04-27 06:23:00,48.5,45.7,30.21,NE,53,0.0,2.0,90,0.00,,---,0.00,VWS V14.01,2013-04-27 11:23:00,
2013-04-27 06:28:00,48.5,45.4,30.22,East,88,0.0,2.0,89,0.00,,---,0.00,VWS V14.01,2013-04-27 11:28:00,
2013-04-27 06:30:00,48.5,45.4,30.22,East,88,0.0,2.0,89,0.00,,---,0.00,VWS V14.01,2013-04-27 11:30:00,
2013-04-27 06:33:00,48.5,45.4,30.22,SE,130,0.0,1.0,89,0.00,,---,0.00,VWS V14.01,2013-04-27 11:33:00,
2013-04-27 06:38:00,48.5,45.4,30.22,ESE,111,0.0,2.0,89,0.00,,---,0.00,VWS V14.01,2013-04-27 11:38:00,
2013-04-27 06:40:00,48.5,45.4,30.22,ESE,111,0.0,2.0,89,0.00,,---,0.00,VWS V14.01,2013-04-27 11:40:00,
2013-04-27 06:43:00,48.5,45.4,30.22,ESE,111,0.0,1.0,89,0.00,,---,0.00,VWS V14.01,2013-04-27 11:43:00,
2013-04-27 06:48:00,48.5,45.4,30.22,ESE,109,0.0,0.0,89,0.00,,---,0.00,VWS V14.01,2013-04-27 11:48:00,
2013-04-27 06:50:00,48.5,45.4,30.22,ESE,109,0.0,2.0,89,0.00,,---,0.00,VWS V14.01,2013-04-27 11:50:00,
2013-04-27 06:53:00,48.5,45.4,30.22,ESE,115,1.0,1.0,89,0.00,,---,0.00,VWS V14.01,2013-04-27 11:53:00,
2013-04-27 06:58:00,48.5,45.4,30.22,East,98,1.0,1.0,89,0.00,,---,0.00,VWS V14.01,2013-04-27 11:58:00,
2013-04-27 07:00:00,48.5,45.4,30.22,East,98,1.0,4.0,89,0.00,,---,0.00,VWS V14.01,2013-04-27 12:00:00,
2013-04-27 07:03:00,48.4,45.3,30.22,East,98,0.0,1.0,89,0.00,,---,0.00,VWS V14.01,2013-04-27 12:03:00,
2013-04-27 07:08:00,48.4,45.3,30.22,East,98,0.0,0.0,89,0.00,,---,0.00,VWS V14.01,2013-04-27 12:08:00,
2013-04-27 07:10:00,48.4,45.3,30.22,East,98,0.0,2.0,89,0.00,,---,0.00,VWS V14.01,2013-04-27 12:10:00,
2013-04-27 07:13:00,48.5,45.4,30.22,East,98,0.0,1.0,89,0.00,,---,0.00,VWS V14.01,2013-04-27 12:13:00,
2013-04-27 07:18:00,48.5,45.4,30.22,NNE,28,0.0,1.0,89,0.00,,---,0.00,VWS V14.01,2013-04-27 12:18:00,
2013-04-27 07:20:00,48.5,45.4,30.22,NNE,28,1.0,2.0,89,0.00,,---,0.00,VWS V14.01,2013-04-27 12:20:00,
2013-04-27 07:23:00,48.5,45.4,30.22,East,92,0.0,3.0,89,0.00,,---,0.00,VWS V14.01,2013-04-27 12:23:00,
2013-04-27 07:28:00,48.5,45.4,30.22,East,92,0.0,0.0,89,0.00,,---,0.00,VWS V14.01,2013-04-27 12:28:00,
2013-04-27 07:30:00,48.5,45.4,30.22,East,92,0.0,3.0,89,0.00,,---,0.00,VWS V14.01,2013-04-27 12:30:00,
2013-04-27 07:33:00,48.5,45.4,30.22,East,94,0.0,2.0,89,0.00,,---,0.00,VWS V14.01,2013-04-27 12:33:00,
2013-04-27 07:38:00,48.5,45.4,30.22,NNE,18,1.0,1.0,89,0.00,,---,0.00,VWS V14.01,2013-04-27 12:38:00,
2013-04-27 07:40:00,48.6,45.5,30.22,North,355,1.0,4.0,89,0.00,,---,0.00,VWS V14.01,2013-04-27 12:40:00,
2013-04-27 07:43:00,48.5,45.4,30.22,NNE,19,1.0,3.0,89,0.00,,---,0.00,VWS V14.01,2013-04-27 12:43:00,
2013-04-27 07:48:00,48.6,45.5,30.22,SE,128,0.0,1.0,89,0.00,,---,0.00,VWS V14.01,2013-04-27 12:48:00,
2013-04-27 07:50:00,48.5,45.4,30.22,SE,128,1.0,3.0,89,0.00,,---,0.00,VWS V14.01,2013-04-27 12:50:00,
2013-04-27 07:53:00,48.6,45.5,30.22,ESE,111,1.0,2.0,89,0.00,,---,0.00,VWS V14.01,2013-04-27 12:53:00,
2013-04-27 07:58:00,48.6,45.5,30.22,SSW,209,3.0,3.0,89,0.00,,---,0.00,VWS V14.01,2013-04-27 12:58:00,
2013-04-27 08:00:00,48.6,45.5,30.22,SE,141,0.0,2.0,89,0.00,,---,0.00,VWS V14.01,2013-04-27 13:00:00,
2013-04-27 08:03:00,48.7,45.6,30.22,East,81,0.0,3.0,89,0.00,,---,0.00,VWS V14.01,2013-04-27 13:03:00,
2013-04-27 08:08:00,48.8,45.7,30.22,East,81,0.0,1.0,89,0.00,,---,0.00,VWS V14.01,2013-04-27 13:08:00,
2013-04-27 08:10:00,48.7,45.6,30.22,East,81,0.0,3.0,89,0.00,,---,0.00,VWS V14.01,2013-04-27 13:10:00,
2013-04-27 08:13:00,48.8,45.7,30.22,ESE,108,1.0,4.0,89,0.00,,---,0.00,VWS V14.01,2013-04-27 13:13:00,
2013-04-27 08:18:00,48.9,45.8,30.22,ESE,106,1.0,4.0,89,0.00,,---,0.00,VWS V14.01,2013-04-27 13:18:00,
2013-04-27 08:20:00,48.9,45.8,30.22,ESE,106,1.0,4.0,89,0.00,,---,0.00,VWS V14.01,2013-04-27 13:20:00,
2013-04-27 08:23:00,48.9,45.8,30.22,ESE,112,2.0,4.0,89,0.00,,---,0.00,VWS V14.01,2013-04-27 13:23:00,
2013-04-27 08:28:00,49.0,45.9,30.22,ESE,112,0.0,0.0,89,0.00,,---,0.00,VWS V14.01,2013-04-27 13:28:00,
2013-04-27 08:30:00,49.0,45.9,30.22,ESE,112,0.0,4.0,89,0.00,,---,0.00,VWS V14.01,2013-04-27 13:30:00,
2013-04-27 08:33:00,49.1,46.0,30.22,NE,36,0.0,4.0,89,0.00,,---,0.00,VWS V14.01,2013-04-27 13:33:00,
2013-04-27 08:38:00,49.0,45.9,30.22,NE,51,0.0,0.0,89,0.00,,---,0.00,VWS V14.01,2013-04-27 13:38:00,
2013-04-27 08:40:00,49.1,46.0,30.22,NE,51,0.0,4.0,89,0.00,,---,0.00,VWS V14.01,2013-04-27 13:40:00,
2013-04-27 08:43:00,49.1,46.0,30.22,NE,49,0.0,3.0,89,0.00,,---,0.00,VWS V14.01,2013-04-27 13:43:00,
2013-04-27 08:48:00,49.1,46.0,30.22,NE,49,0.0,1.0,89,0.00,,---,0.00,VWS V14.01,2013-04-27 13:48:00,
2013-04-27 08:50:00,49.1,46.0,30.22,NE,49,0.0,3.0,89,0.00,,---,0.00,VWS V14.01,2013-04-27 13:50:00,
2013-04-27 08:53:00,49.2,46.1,30.22,NE,49,0.0,2.0,89,0.00,,---,0.00,VWS V14.01,2013-04-27 13:53:00,
2013-04-27 08:58:00,49.3,46.2,30.22,East,83,0.0,2.0,89,0.00,,---,0.00,VWS V14.01,2013-04-27 13:58:00,
2013-04-27 09:00:00,49.2,46.1,30.22,ENE,59,1.0,2.0,89,0.00,,---,0.00,VWS V14.01,2013-04-27 14:00:00,
2013-04-27 09:04:00,49.3,46.2,30.22,East,83,0.0,2.0,89,0.00,,---,0.00,VWS V14.01,2013-04-27 14:04:00,
2013-04-27 09:09:00,49.4,46.0,30.22,SE,132,0.0,0.0,88,0.00,,---,0.00,VWS V14.01,2013-04-27 14:09:00,
2013-04-27 09:10:00,49.4,46.0,30.22,SE,132,0.0,2.0,88,0.00,,---,0.00,VWS V14.01,2013-04-27 14:10:00,
2013-04-27 09:14:00,49.5,46.1,30.21,NNE,33,1.0,4.0,88,0.00,,---,0.00,VWS V14.01,2013-04-27 14:14:00,
2013-04-27 09:19:00,49.5,46.1,30.21,NE,34,0.0,1.0,88,0.00,,---,0.00,VWS V14.01,2013-04-27 14:19:00,
2013-04-27 09:20:00,49.5,46.1,30.21,NE,34,0.0,4.0,88,0.00,,---,0.00,VWS V14.01,2013-04-27 14:20:00,
2013-04-27 09:24:00,49.6,47.4,30.21,ESE,111,0.0,2.0,92,0.00,,---,0.00,VWS V14.01,2013-04-27 14:24:00,
2013-04-27 09:29:00,49.7,46.3,30.21,ESE,111,0.0,0.0,88,0.00,,---,0.00,VWS V14.01,2013-04-27 14:29:00,
2013-04-27 09:30:00,49.7,46.3,30.21,ESE,111,0.0,2.0,88,0.00,,---,0.00,VWS V14.01,2013-04-27 14:30:00,
2013-04-27 09:34:00,49.9,46.5,30.21,East,80,2.0,3.0,88,0.00,,---,0.00,VWS V14.01,2013-04-27 14:34:00,
2013-04-27 09:39:00,49.9,46.5,30.21,East,80,3.0,3.0,88,0.00,,---,0.00,VWS V14.01,2013-04-27 14:39:00,
2013-04-27 09:40:00,49.9,46.5,30.21,East,80,0.0,3.0,88,0.00,,---,0.00,VWS V14.01,2013-04-27 14:40:00,
2013-04-27 09:44:00,49.9,46.5,30.21,East,80,0.0,3.0,88,0.00,,---,0.00,VWS V14.01,2013-04-27 14:44:00,
2013-04-27 09:49:00,50.0,46.9,30.21,East,80,0.0,0.0,89,0.00,,---,0.00,VWS V14.01,2013-04-27 14:49:00,
2013-04-27 09:50:00,50.0,46.9,30.21,East,80,0.0,3.0,89,0.00,,---,0.00,VWS V14.01,2013-04-27 14:50:00,
2013-04-27 09:54:00,50.0,46.9,30.21,NE,43,1.0,3.0,89,0.00,,---,0.00,VWS V14.01,2013-04-27 14:54:00,
2013-04-27 09:59:00,50.0,46.6,30.21,NE,54,0.0,0.0,88,0.00,,---,0.00,VWS V14.01,2013-04-27 14:59:00,
2013-04-27 10:00:00,50.0,46.6,30.21,NE,54,0.0,3.0,88,0.00,,---,0.00,VWS V14.01,2013-04-27 15:00:00,
2013-04-27 10:04:00,50.2,46.8,30.21,ENE,61,0.0,1.0,88,0.00,,---,0.00,VWS V14.01,2013-04-27 15:04:00,
2013-04-27 10:09:00,50.3,46.9,30.21,ENE,61,1.0,2.0,88,0.00,,---,0.00,VWS V14.01,2013-04-27 15:09:00,
2013-04-27 10:10:00,50.3,46.9,30.21,ENE,61,0.0,3.0,88,0.00,,---,0.00,VWS V14.01,2013-04-27 15:10:00,
2013-04-27 10:14:00,50.4,46.7,30.21,ENE,61,1.0,3.0,87,0.00,,---,0.00,VWS V14.01,2013-04-27 15:14:00,
2013-04-27 10:19:00,50.5,47.1,30.20,ENE,61,0.0,1.0,88,0.00,,---,0.00,VWS V14.01,2013-04-27 15:19:00,
2013-04-27 10:20:00,50.5,47.1,30.20,ENE,61,0.0,3.0,88,0.00,,---,0.00,VWS V14.01,2013-04-27 15:20:00,
2013-04-27 10:24:00,51.0,47.6,30.20,ENE,62,0.0,2.0,88,0.00,,---,0.00,VWS V14.01,2013-04-27 15:24:00,
2013-04-27 10:29:00,51.3,47.0,30.20,ENE,59,1.0,2.0,85,0.00,,---,0.00,VWS V14.01,2013-04-27 15:29:00,
2013-04-27 10:30:00,51.3,47.3,30.20,NNE,17,1.0,3.0,86,0.00,,---,0.00,VWS V14.01,2013-04-27 15:30:00,
2013-04-27 10:34:00,51.7,47.3,30.21,East,79,0.0,4.0,85,0.00,,---,0.00,VWS V14.01,2013-04-27 15:34:00,
2013-04-27 10:39:00,52.0,47.3,30.21,ESE,103,1.0,2.0,84,0.00,,---,0.00,VWS V14.01,2013-04-27 15:39:00,
2013-04-27 10:40:00,52.0,47.3,30.21,East,96,2.0,4.0,84,0.00,,---,0.00,VWS V14.01,2013-04-27 15:40:00,
2013-04-27 10:44:00,52.2,47.2,30.21,NE,53,0.0,3.0,83,0.00,,---,0.00,VWS V14.01,2013-04-27 15:44:00,
2013-04-27 10:49:00,52.2,47.2,30.21,East,98,4.0,4.0,83,0.00,,---,0.00,VWS V14.01,2013-04-27 15:49:00,
2013-04-27 10:50:00,52.2,47.2,30.20,ESE,121,1.0,3.0,83,0.00,,---,0.00,VWS V14.01,2013-04-27 15:50:00,
2013-04-27 10:54:00,52.4,47.4,30.20,North,355,1.0,4.0,83,0.00,,---,0.00,VWS V14.01,2013-04-27 15:54:00,
2013-04-27 10:59:00,52.5,47.5,30.21,East,80,0.0,2.0,83,0.00,,---,0.00,VWS V14.01,2013-04-27 15:59:00,
2013-04-27 11:00:00,52.5,47.5,30.21,NNE,31,3.0,4.0,83,0.00,,---,0.00,VWS V14.01,2013-04-27 16:00:00,
2013-04-27 11:04:00,52.6,47.6,30.20,East,89,1.0,5.0,83,0.00,,---,0.00,VWS V14.01,2013-04-27 16:04:00,
2013-04-27 11:09:00,52.9,47.9,30.20,ESE,107,0.0,1.0,83,0.00,,---,0.00,VWS V14.01,2013-04-27 16:09:00,
2013-04-27 11:10:00,52.8,47.8,30.20,ESE,107,0.0,5.0,83,0.00,,---,0.00,VWS V14.01,2013-04-27 16:10:00,
2013-04-27 11:14:00,53.2,47.9,30.20,NE,45,0.0,3.0,82,0.00,,---,0.00,VWS V14.01,2013-04-27 16:14:00,
2013-04-27 11:19:00,53.4,47.7,30.21,NE,35,0.0,1.0,81,0.00,,---,0.00,VWS V14.01,2013-04-27 16:19:00,
2013-04-27 11:20:00,53.3,47.6,30.20,NE,35,0.0,4.0,81,0.00,,---,0.00,VWS V14.01,2013-04-27 16:20:00,
2013-04-27 11:24:00,53.6,47.9,30.21,ENE,66,0.0,4.0,81,0.00,,---,0.00,VWS V14.01,2013-04-27 16:24:00,
2013-04-27 11:29:00,54.0,48.3,30.20,ENE,66,0.0,0.0,81,0.00,,---,0.00,VWS V14.01,2013-04-27 16:29:00,
2013-04-27 11:30:00,53.9,47.9,30.21,ENE,66,0.0,4.0,80,0.00,,---,0.00,VWS V14.01,2013-04-27 16:30:00,
2013-04-27 11:34:00,54.0,47.6,30.20,NE,55,0.0,4.0,79,0.00,,---,0.00,VWS V14.01,2013-04-27 16:34:00,
2013-04-27 11:39:00,54.1,48.1,30.20,SSE,153,2.0,2.0,80,0.00,,---,0.00,VWS V14.01,2013-04-27 16:39:00,
2013-04-27 11:40:00,54.1,48.1,30.20,NNW,341,1.0,4.0,80,0.00,,---,0.00,VWS V14.01,2013-04-27 16:40:00,
2013-04-27 11:44:00,54.4,48.0,30.20,SE,126,1.0,2.0,79,0.00,,---,0.00,VWS V14.01,2013-04-27 16:44:00,
2013-04-27 11:49:00,54.4,48.0,30.20,NE,46,2.0,4.0,79,0.00,,---,0.00,VWS V14.01,2013-04-27 16:49:00,
2013-04-27 11:50:00,54.4,48.0,30.20,NE,49,0.0,4.0,79,0.00,,---,0.00,VWS V14.01,2013-04-27 16:50:00,
2013-04-27 11:54:00,54.4,48.0,30.20,NE,53,0.0,4.0,79,0.00,,---,0.00,VWS V14.01,2013-04-27 16:54:00,
2013-04-27 11:59:00,54.6,48.2,30.20,ENE,68,0.0,1.0,79,0.00,,---,0.00,VWS V14.01,2013-04-27 16:59:00,
2013-04-27 12:00:00,54.5,48.1,30.20,NE,46,0.0,4.0,79,0.00,,---,0.00,VWS V14.01,2013-04-27 17:00:00,
2013-04-27 12:04:00,54.8,48.1,30.20,NE,44,0.0,2.0,78,0.00,,---,0.00,VWS V14.01,2013-04-27 17:04:00,
2013-04-27 12:09:00,54.9,48.2,30.20,ESE,113,0.0,2.0,78,0.00,,---,0.00,VWS V14.01,2013-04-27 17:09:00,
2013-04-27 12:10:00,54.8,48.1,30.20,ENE,78,0.0,4.0,78,0.00,,---,0.00,VWS V14.01,2013-04-27 17:10:00,
2013-04-27 12:14:00,55.0,48.3,30.20,ESE,113,0.0,2.0,78,0.00,,---,0.00,VWS V14.01,2013-04-27 17:14:00,
2013-04-27 12:19:00,55.3,48.6,30.20,NNE,13,0.0,0.0,78,0.00,,---,0.00,VWS V14.01,2013-04-27 17:19:00,
2013-04-27 12:20:00,55.2,48.5,30.20,NNE,13,0.0,4.0,78,0.00,,---,0.00,VWS V14.01,2013-04-27 17:20:00,
2013-04-27 12:24:00,55.6,48.5,30.20,SE,141,1.0,4.0,77,0.00,,---,0.00,VWS V14.01,2013-04-27 17:24:00,
2013-04-27 12:29:00,55.9,48.5,30.20,East,79,1.0,3.0,76,0.00,,---,0.00,VWS V14.01,2013-04-27 17:29:00,
2013-04-27 12:30:00,55.9,48.8,30.20,NNE,26,3.0,4.0,77,0.00,,---,0.00,VWS V14.01,2013-04-27 17:30:00,
2013-04-27 12:34:00,55.7,48.3,30.19,NNE,16,1.0,4.0,76,0.00,,---,0.00,VWS V14.01,2013-04-27 17:34:00,
2013-04-27 12:39:00,55.6,48.5,30.19,SSE,163,0.0,1.0,77,0.00,,---,0.00,VWS V14.01,2013-04-27 17:39:00,
2013-04-27 12:40:00,55.6,48.5,30.19,SE,141,0.0,5.0,77,0.00,,---,0.00,VWS V14.01,2013-04-27 17:40:00,
2013-04-27 12:44:00,55.8,48.4,30.19,SE,146,0.0,5.0,76,0.00,,---,0.00,VWS V14.01,2013-04-27 17:44:00,
2013-04-27 12:49:00,56.0,48.5,30.18,NE,41,0.0,5.0,76,0.00,,---,0.00,VWS V14.01,2013-04-27 17:49:00,
2013-04-27 12:50:00,55.9,48.5,30.18,SE,129,1.0,5.0,76,0.00,,---,0.00,VWS V14.01,2013-04-27 17:50:00,
2013-04-27 12:55:00,56.2,48.8,30.18,ESE,105,0.0,5.0,76,0.00,,---,0.00,VWS V14.01,2013-04-27 17:55:00,
2013-04-27 13:00:00,56.3,48.5,30.18,NE,48,2.0,2.0,75,0.00,,---,0.00,VWS V14.01,2013-04-27 18:00:00,
2013-04-27 13:05:00,56.4,48.6,30.18,SE,140,0.0,4.0,75,0.00,,---,0.00,VWS V14.01,2013-04-27 18:05:00,
2013-04-27 13:10:00,56.7,48.9,30.17,East,84,1.0,4.0,75,0.00,,---,0.00,VWS V14.01,2013-04-27 18:10:00,
2013-04-27 13:15:00,56.9,49.1,30.17,ENE,76,0.0,6.0,75,0.00,,---,0.00,VWS V14.01,2013-04-27 18:15:00,
2013-04-27 13:20:00,57.4,49.5,30.17,South,182,0.0,1.0,75,0.00,,---,0.00,VWS V14.01,2013-04-27 18:20:00,
2013-04-27 13:25:00,57.9,49.3,30.17,ESE,117,1.0,3.0,73,0.00,,---,0.00,VWS V14.01,2013-04-27 18:25:00,
2013-04-27 13:30:00,58.1,49.1,30.17,NE,44,2.0,4.0,72,0.00,,---,0.00,VWS V14.01,2013-04-27 18:30:00,
2013-04-27 13:35:00,58.0,49.4,30.17,NE,44,1.0,4.0,73,0.00,,---,0.00,VWS V14.01,2013-04-27 18:35:00,
2013-04-27 13:40:00,57.9,48.9,30.17,SSE,150,1.0,2.0,72,0.00,,---,0.00,VWS V14.01,2013-04-27 18:40:00,
2013-04-27 13:45:00,57.7,49.1,30.17,ESE,113,1.0,4.0,73,0.00,,---,0.00,VWS V14.01,2013-04-27 18:45:00,
2013-04-27 13:50:00,57.7,48.8,30.17,ENE,63,0.0,3.0,72,0.00,,---,0.00,VWS V14.01,2013-04-27 18:50:00,
2013-04-27 13:55:00,57.6,48.7,30.17,ENE,60,1.0,3.0,72,0.00,,---,0.00,VWS V14.01,2013-04-27 18:55:00,
2013-04-27 14:00:00,57.8,49.2,30.16,East,92,1.0,4.0,73,0.00,,---,0.00,VWS V14.01,2013-04-27 19:00:00,
2013-04-27 14:05:00,57.8,49.2,30.16,East,92,1.0,4.0,73,0.00,,---,0.00,VWS V14.01,2013-04-27 19:05:00,
2013-04-27 14:10:00,57.9,49.3,30.16,East,92,0.0,2.0,73,0.00,,---,0.00,VWS V14.01,2013-04-27 19:10:00,
2013-04-27 14:15:00,58.1,48.8,30.16,East,92,0.0,2.0,71,0.00,,---,0.00,VWS V14.01,2013-04-27 19:15:00,
2013-04-27 14:20:00,58.2,49.2,30.16,NE,47,4.0,4.0,72,0.00,,---,0.00,VWS V14.01,2013-04-27 19:20:00,
2013-04-27 14:25:00,57.9,48.9,30.16,SE,126,0.0,4.0,72,0.00,,---,0.00,VWS V14.01,2013-04-27 19:25:00,
2013-04-27 14:30:00,57.7,48.8,30.16,NE,51,0.0,1.0,72,0.00,,---,0.00,VWS V14.01,2013-04-27 19:30:00,
2013-04-27 14:35:00,57.4,48.5,30.16,NE,53,0.0,4.0,72,0.00,,---,0.00,VWS V14.01,2013-04-27 19:35:00,
2013-04-27 14:40:00,57.2,48.6,30.16,NE,53,0.0,1.0,73,0.00,,---,0.00,VWS V14.01,2013-04-27 19:40:00,
2013-04-27 14:45:00,57.3,49.1,30.16,NE,53,0.0,1.0,74,0.00,,---,0.00,VWS V14.01,2013-04-27 19:45:00,
2013-04-27 14:50:00,57.5,48.9,30.16,NE,51,2.0,2.0,73,0.00,,---,0.00,VWS V14.01,2013-04-27 19:50:00,
2013-04-27 14:55:00,57.2,48.3,30.16,NE,51,1.0,3.0,72,0.00,,---,0.00,VWS V14.01,2013-04-27 19:55:00,
2013-04-27 15:00:00,57.0,48.4,30.15,NE,55,1.0,2.0,73,0.00,,---,0.00,VWS V14.01,2013-04-27 20:00:00,
2013-04-27 15:05:00,57.2,49.0,30.15,NE,55,0.0,3.0,74,0.00,,---,0.00,VWS V14.01,2013-04-27 20:05:00,
2013-04-27 15:10:00,57.5,48.6,30.15,NE,55,0.0,2.0,72,0.00,,---,0.00,VWS V14.01,2013-04-27 20:10:00,
2013-04-27 15:15:00,57.7,48.4,30.14,NE,55,0.0,3.0,71,0.00,,---,0.00,VWS V14.01,2013-04-27 20:15:00,
2013-04-27 15:20:00,57.8,48.5,30.14,NE,55,1.0,2.0,71,0.00,,---,0.00,VWS V14.01,2013-04-27 20:20:00,
2013-04-27 15:25:00,58.0,48.7,30.14,NE,55,0.0,3.0,71,0.00,,---,0.00,VWS V14.01,2013-04-27 20:25:00,
2013-04-27 15:30:00,58.4,48.7,30.14,NE,55,0.0,2.0,70,0.00,,---,0.00,VWS V14.01,2013-04-27 20:30:00,
2013-04-27 15:35:00,58.7,49.0,30.14,NE,54,0.0,2.0,70,0.00,,---,0.00,VWS V14.01,2013-04-27 20:35:00,
2013-04-27 15:40:00,58.9,49.2,30.13,NE,54,1.0,2.0,70,0.00,,---,0.00,VWS V14.01,2013-04-27 20:40:00,
2013-04-27 15:45:00,59.2,49.4,30.13,ESE,109,0.0,3.0,70,0.00,,---,0.00,VWS V14.01,2013-04-27 20:45:00,
2013-04-27 15:50:00,59.4,49.2,30.13,WSW,249,0.0,3.0,69,0.00,,---,0.00,VWS V14.01,2013-04-27 20:50:00,
2013-04-27 15:56:00,59.6,49.0,30.13,NNW,340,2.0,4.0,68,0.00,,---,0.00,VWS V14.01,2013-04-27 20:56:00,
2013-04-27 16:00:00,59.7,49.1,30.13,NNW,336,1.0,4.0,68,0.00,,---,0.00,VWS V14.01,2013-04-27 21:00:00,
2013-04-27 16:01:00,59.7,49.1,30.13,WNW,287,0.0,5.0,68,0.00,,---,0.00,VWS V14.01,2013-04-27 21:01:00,
2013-04-27 16:06:00,59.7,49.1,30.12,WNW,288,1.0,5.0,68,0.00,,---,0.00,VWS V14.01,2013-04-27 21:06:00,
2013-04-27 16:10:00,59.7,49.5,30.12,WNW,288,0.0,5.0,69,0.00,,---,0.00,VWS V14.01,2013-04-27 21:10:00,
2013-04-27 16:11:00,59.8,49.2,30.12,WNW,288,1.0,1.0,68,0.00,,---,0.00,VWS V14.01,2013-04-27 21:11:00,
2013-04-27 16:16:00,59.9,49.3,30.12,West,275,2.0,4.0,68,0.00,,---,0.00,VWS V14.01,2013-04-27 21:16:00,
2013-04-27 16:20:00,60.0,49.4,30.12,West,275,2.0,4.0,68,0.00,,---,0.00,VWS V14.01,2013-04-27 21:20:00,
2013-04-27 16:21:00,60.1,49.1,30.12,NW,321,0.0,2.0,67,0.00,,---,0.00,VWS V14.01,2013-04-27 21:21:00,
2013-04-27 16:26:00,60.2,49.6,30.12,WNW,300,0.0,4.0,68,0.00,,---,0.00,VWS V14.01,2013-04-27 21:26:00,
2013-04-27 16:30:00,60.2,49.2,30.12,WNW,300,0.0,4.0,67,0.00,,---,0.00,VWS V14.01,2013-04-27 21:30:00,
2013-04-27 16:31:00,60.1,49.1,30.12,NW,319,2.0,4.0,67,0.00,,---,0.00,VWS V14.01,2013-04-27 21:31:00,
2013-04-27 16:36:00,60.0,49.4,30.11,WNW,290,2.0,4.0,68,0.00,,---,0.00,VWS V14.01,2013-04-27 21:36:00,
2013-04-27 16:40:00,60.0,49.4,30.11,West,268,0.0,4.0,68,0.00,,---,0.00,VWS V14.01,2013-04-27 21:40:00,
2013-04-27 16:41:00,60.1,49.5,30.11,West,268,0.0,1.0,68,0.00,,---,0.00,VWS V14.01,2013-04-27 21:41:00,
2013-04-27 16:46:00,60.1,49.1,30.11,West,268,0.0,1.0,67,0.00,,---,0.00,VWS V14.01,2013-04-27 21:46:00,
2013-04-27 16:50:00,60.1,49.1,30.11,West,268,1.0,2.0,67,0.00,,---,0.00,VWS V14.01,2013-04-27 21:50:00,
2013-04-27 16:51:00,60.2,49.6,30.11,West,268,0.0,2.0,68,0.00,,---,0.00,VWS V14.01,2013-04-27 21:51:00,
2013-04-27 16:56:00,60.3,49.3,30.11,West,269,0.0,2.0,67,0.00,,---,0.00,VWS V14.01,2013-04-27 21:56:00,
2013-04-27 17:00:00,60.3,49.3,30.11,West,269,1.0,2.0,67,0.00,,---,0.00,VWS V14.01,2013-04-27 22:00:00,
2013-04-27 17:01:00,60.2,49.2,30.10,West,269,0.0,1.0,67,0.00,,---,0.00,VWS V14.01,2013-04-27 22:01:00,
2013-04-27 17:06:00,60.2,49.2,30.10,West,269,0.0,1.0,67,0.00,,---,0.00,VWS V14.01,2013-04-27 22:06:00,
2013-04-27 17:10:00,60.2,49.6,30.10,West,269,0.0,1.0,68,0.00,,---,0.00,VWS V14.01,2013-04-27 22:10:00,
2013-04-27 17:11:00,60.2,49.6,30.10,West,269,0.0,1.0,68,0.00,,---,0.00,VWS V14.01,2013-04-27 22:11:00,
2013-04-27 17:16:00,60.3,49.3,30.10,West,269,0.0,1.0,67,0.00,,---,0.00,VWS V14.01,2013-04-27 22:16:00,
2013-04-27 17:20:00,60.4,49.4,30.10,NE,45,0.0,3.0,67,0.00,,---,0.00,VWS V14.01,2013-04-27 22:20:00,
2013-04-27 17:21:00,60.3,49.3,30.10,NE,45,0.0,1.0,67,0.00,,---,0.00,VWS V14.01,2013-04-27 22:21:00,
2013-04-27 17:26:00,60.4,49.4,30.09,NE,45,0.0,1.0,67,0.00,,---,0.00,VWS V14.01,2013-04-27 22:26:00,
2013-04-27 17:30:00,60.4,49.8,30.10,NE,45,0.0,1.0,68,0.00,,---,0.00,VWS V14.01,2013-04-27 22:30:00,
2013-04-27 17:31:00,60.4,49.0,30.10,NE,34,1.0,2.0,66,0.00,,---,0.00,VWS V14.01,2013-04-27 22:31:00,
2013-04-27 17:36:00,60.2,49.2,30.09,NE,34,0.0,2.0,67,0.00,,---,0.00,VWS V14.01,2013-04-27 22:36:00,
2013-04-27 17:40:00,60.2,49.2,30.09,NE,34,0.0,2.0,67,0.00,,---,0.00,VWS V14.01,2013-04-27 22:40:00,
2013-04-27 17:41:00,60.2,48.8,30.09,NE,34,1.0,3.0,66,0.00,,---,0.00,VWS V14.01,2013-04-27 22:41:00,
2013-04-27 17:46:00,60.0,49.0,30.09,NE,34,0.0,3.0,67,0.00,,---,0.00,VWS V14.01,2013-04-27 22:46:00,
2013-04-27 17:50:00,60.0,49.0,30.09,NE,34,0.0,3.0,67,0.00,,---,0.00,VWS V14.01,2013-04-27 22:50:00,
2013-04-27 17:51:00,59.9,48.9,30.09,NE,34,0.0,2.0,67,0.00,,---,0.00,VWS V14.01,2013-04-27 22:51:00,
2013-04-27 17:56:00,59.9,49.3,30.09,NE,34,0.0,2.0,68,0.00,,---,0.00,VWS V14.01,2013-04-27 22:56:00,
2013-04-27 18:00:00,59.9,48.9,30.09,NE,34,0.0,2.0,67,0.00,,---,0.00,VWS V14.01,2013-04-27 23:00:00,
2013-04-27 18:01:00,59.9,48.9,30.09,East,84,0.0,1.0,67,0.00,,---,0.00,VWS V14.01,2013-04-27 23:01:00,
2013-04-27 18:06:00,59.8,48.8,30.09,ENE,71,1.0,2.0,67,0.00,,---,0.00,VWS V14.01,2013-04-27 23:06:00,
2013-04-27 18:10:00,59.7,48.7,30.09,ESE,105,0.0,2.0,67,0.00,,---,0.00,VWS V14.01,2013-04-27 23:10:00,
2013-04-27 18:11:00,59.6,49.0,30.09,ESE,105,0.0,4.0,68,0.00,,---,0.00,VWS V14.01,2013-04-27 23:11:00,
2013-04-27 18:16:00,59.6,49.0,30.08,ESE,105,0.0,4.0,68,0.00,,---,0.00,VWS V14.01,2013-04-27 23:16:00,
2013-04-27 18:20:00,59.6,49.0,30.09,ESE,105,0.0,4.0,68,0.00,,---,0.00,VWS V14.01,2013-04-27 23:20:00,
2013-04-27 18:21:00,59.6,49.0,30.09,ESE,105,0.0,0.0,68,0.00,,---,0.00,VWS V14.01,2013-04-27 23:21:00,
2013-04-27 18:26:00,59.8,48.8,30.09,ESE,105,0.0,2.0,67,0.00,,---,0.00,VWS V14.01,2013-04-27 23:26:00,
2013-04-27 18:30:00,59.8,48.8,30.09,ESE,105,0.0,2.0,67,0.00,,---,0.00,VWS V14.01,2013-04-27 23:30:00,
2013-04-27 18:31:00,59.8,49.2,30.09,ESE,105,0.0,1.0,68,0.00,,---,0.00,VWS V14.01,2013-04-27 23:31:00,
2013-04-27 18:36:00,59.8,48.8,30.09,ESE,105,0.0,2.0,67,0.00,,---,0.00,VWS V14.01,2013-04-27 23:36:00,
2013-04-27 18:40:00,59.8,48.8,30.09,ESE,105,1.0,2.0,67,0.00,,---,0.00,VWS V14.01,2013-04-27 23:40:00,
2013-04-27 18:41:00,59.7,49.1,30.09,ESE,105,0.0,1.0,68,0.00,,---,0.00,VWS V14.01,2013-04-27 23:41:00,
2013-04-27 18:46:00,59.6,49.0,30.08,ESE,105,0.0,1.0,68,0.00,,---,0.00,VWS V14.01,2013-04-27 23:46:00,
2013-04-27 18:50:00,59.6,49.0,30.08,ESE,105,0.0,1.0,68,0.00,,---,0.00,VWS V14.01,2013-04-27 23:50:00,
2013-04-27 18:51:00,59.6,49.4,30.08,ESE,105,0.0,0.0,69,0.00,,---,0.00,VWS V14.01,2013-04-27 23:51:00,
2013-04-27 18:56:00,59.5,48.9,30.08,ESE,105,0.0,0.0,68,0.00,,---,0.00,VWS V14.01,2013-04-27 23:56:00,
2013-04-27 19:00:00,59.5,49.3,30.08,ESE,105,0.0,0.0,69,0.00,,---,0.00,VWS V14.01,2013-04-28 00:00:00,
2013-04-27 19:01:00,59.5,49.3,30.08,ESE,105,0.0,1.0,69,0.00,,---,0.00,VWS V14.01,2013-04-28 00:01:00,
2013-04-27 19:06:00,59.5,49.3,30.08,ESE,105,0.0,1.0,69,0.00,,---,0.00,VWS V14.01,2013-04-28 00:06:00,
2013-04-27 19:10:00,59.5,49.7,30.08,ESE,105,0.0,1.0,70,0.00,,---,0.00,VWS V14.01,2013-04-28 00:10:00,
2013-04-27 19:11:00,59.5,49.3,30.08,ESE,105,0.0,0.0,69,0.00,,---,0.00,VWS V14.01,2013-04-28 00:11:00,
2013-04-27 19:16:00,59.6,49.4,30.08,ESE,105,0.0,1.0,69,0.00,,---,0.00,VWS V14.01,2013-04-28 00:16:00,
2013-04-27 19:20:00,59.6,49.4,30.08,ESE,105,0.0,1.0,69,0.00,,---,0.00,VWS V14.01,2013-04-28 00:20:00,
2013-04-27 19:21:00,59.6,49.4,30.08,ESE,105,0.0,0.0,69,0.00,,---,0.00,VWS V14.01,2013-04-28 00:21:00,
2013-04-27 19:26:00,59.8,49.6,30.08,ESE,105,0.0,1.0,69,0.00,,---,0.00,VWS V14.01,2013-04-28 00:26:00,
2013-04-27 19:30:00,59.9,49.7,30.08,ESE,105,1.0,1.0,69,0.00,,---,0.00,VWS V14.01,2013-04-28 00:30:00,
2013-04-27 19:31:00,59.8,49.6,30.08,ESE,105,0.0,4.0,69,0.00,,---,0.00,VWS V14.01,2013-04-28 00:31:00,
2013-04-27 19:36:00,59.6,49.4,30.08,ESE,104,0.0,4.0,69,0.00,,---,0.00,VWS V14.01,2013-04-28 00:36:00,
2013-04-27 19:40:00,59.5,49.3,30.08,ESE,104,0.0,4.0,69,0.00,,---,0.00,VWS V14.01,2013-04-28 00:40:00,
2013-04-27 19:41:00,59.4,49.6,30.08,ESE,104,1.0,1.0,70,0.00,,---,0.00,VWS V14.01,2013-04-28 00:41:00,
2013-04-27 19:46:00,59.1,49.7,30.07,ESE,104,0.0,1.0,71,0.00,,---,0.00,VWS V14.01,2013-04-28 00:46:00,
2013-04-27 19:50:00,59.0,49.6,30.07,ESE,104,0.0,1.0,71,0.00,,---,0.00,VWS V14.01,2013-04-28 00:50:00,
2013-04-27 19:51:00,58.8,49.4,30.07,ESE,104,0.0,1.0,71,0.00,,---,0.00,VWS V14.01,2013-04-28 00:51:00,
2013-04-27 19:57:00,58.5,49.5,30.08,ESE,104,0.0,1.0,72,0.00,,---,0.00,VWS V14.01,2013-04-28 00:57:00,
2013-04-27 20:00:00,58.4,49.4,30.07,ESE,104,0.0,1.0,72,0.00,,---,0.00,VWS V14.01,2013-04-28 01:00:00,
2013-04-27 20:02:00,58.1,49.1,30.07,ESE,104,0.0,2.0,72,0.00,,---,0.00,VWS V14.01,2013-04-28 01:02:00,
2013-04-27 20:07:00,57.7,49.1,30.08,ESE,104,0.0,2.0,73,0.00,,---,0.00,VWS V14.01,2013-04-28 01:07:00,
2013-04-27 20:10:00,57.7,49.5,30.08,ESE,104,0.0,2.0,74,0.00,,---,0.00,VWS V14.01,2013-04-28 01:10:00,
2013-04-27 20:12:00,57.4,49.2,30.07,ESE,104,0.0,0.0,74,0.00,,---,0.00,VWS V14.01,2013-04-28 01:12:00,
2013-04-27 20:17:00,57.1,49.3,30.07,ESE,104,0.0,1.0,75,0.00,,---,0.00,VWS V14.01,2013-04-28 01:17:00,
2013-04-27 20:20:00,56.9,49.1,30.07,ESE,104,0.0,1.0,75,0.00,,---,0.00,VWS V14.01,2013-04-28 01:20:00,
2013-04-27 20:22:00,56.7,48.9,30.07,ESE,104,0.0,2.0,75,0.00,,---,0.00,VWS V14.01,2013-04-28 01:22:00,
2013-04-27 20:27:00,56.3,48.8,30.07,ESE,104,0.0,2.0,76,0.00,,---,0.00,VWS V14.01,2013-04-28 01:27:00,
2013-04-27 20:30:00,56.3,48.8,30.07,ESE,104,0.0,2.0,76,0.00,,---,0.00,VWS V14.01,2013-04-28 01:30:00,
2013-04-27 20:32:00,56.0,48.5,30.07,ESE,104,0.0,1.0,76,0.00,,---,0.00,VWS V14.01,2013-04-28 01:32:00,
2013-04-27 20:37:00,55.7,48.6,30.07,ESE,104,0.0,1.0,77,0.00,,---,0.00,VWS V14.01,2013-04-28 01:37:00,
2013-04-27 20:40:00,55.6,48.5,30.07,ESE,104,0.0,1.0,77,0.00,,---,0.00,VWS V14.01,2013-04-28 01:40:00,
2013-04-27 20:42:00,55.3,48.2,30.07,ESE,104,0.0,0.0,77,0.00,,---,0.00,VWS V14.01,2013-04-28 01:42:00,
2013-04-27 20:47:00,55.0,48.3,30.07,ESE,104,0.0,0.0,78,0.00,,---,0.00,VWS V14.01,2013-04-28 01:47:00,
2013-04-27 20:50:00,54.9,48.2,30.07,ESE,104,0.0,0.0,78,0.00,,---,0.00,VWS V14.01,2013-04-28 01:50:00,
2013-04-27 20:52:00,54.7,48.3,30.07,ESE,104,0.0,0.0,79,0.00,,---,0.00,VWS V14.01,2013-04-28 01:52:00,
2013-04-27 20:57:00,54.4,48.0,30.08,ESE,104,0.0,0.0,79,0.00,,---,0.00,VWS V14.01,2013-04-28 01:57:00,
2013-04-27 21:00:00,54.3,47.9,30.08,ESE,104,0.0,0.0,79,0.00,,---,0.00,VWS V14.01,2013-04-28 02:00:00,
2013-04-27 21:02:00,54.0,48.0,30.07,ESE,104,0.0,0.0,80,0.00,,---,0.00,VWS V14.01,2013-04-28 02:02:00,
2013-04-27 21:07:00,53.7,47.7,30.08,ESE,104,0.0,0.0,80,0.00,,---,0.00,VWS V14.01,2013-04-28 02:07:00,
2013-04-27 21:10:00,53.6,47.9,30.08,ESE,104,0.0,0.0,81,0.00,,---,0.00,VWS V14.01,2013-04-28 02:10:00,
2013-04-27 21:12:00,53.4,47.7,30.08,ESE,104,0.0,0.0,81,0.00,,---,0.00,VWS V14.01,2013-04-28 02:12:00,
2013-04-27 21:17:00,53.1,47.4,30.08,ESE,104,0.0,0.0,81,0.00,,---,0.00,VWS V14.01,2013-04-28 02:17:00,
2013-04-27 21:20:00,53.1,47.4,30.08,ESE,104,0.0,0.0,81,0.00,,---,0.00,VWS V14.01,2013-04-28 02:20:00,
2013-04-27 21:22:00,52.9,47.2,30.08,ESE,104,0.0,0.0,81,0.00,,---,0.00,VWS V14.01,2013-04-28 02:22:00,
2013-04-27 21:27:00,52.6,47.3,30.08,ESE,104,0.0,0.0,82,0.00,,---,0.00,VWS V14.01,2013-04-28 02:27:00,
2013-04-27 21:30:00,52.6,47.3,30.08,ESE,104,0.0,0.0,82,0.00,,---,0.00,VWS V14.01,2013-04-28 02:30:00,
2013-04-27 21:32:00,52.4,47.1,30.08,ESE,104,0.0,0.0,82,0.00,,---,0.00,VWS V14.01,2013-04-28 02:32:00,
2013-04-27 21:37:00,52.1,47.1,30.08,ESE,104,0.0,0.0,83,0.00,,---,0.00,VWS V14.01,2013-04-28 02:37:00,
2013-04-27 21:40:00,52.1,47.1,30.08,ESE,104,0.0,0.0,83,0.00,,---,0.00,VWS V14.01,2013-04-28 02:40:00,
2013-04-27 21:42:00,51.9,46.9,30.08,ESE,104,0.0,0.0,83,0.00,,---,0.00,VWS V14.01,2013-04-28 02:42:00,
2013-04-27 21:47:00,51.7,47.0,30.08,ESE,104,0.0,0.0,84,0.00,,---,0.00,VWS V14.01,2013-04-28 02:47:00,
2013-04-27 21:50:00,51.7,46.7,30.08,ESE,104,0.0,0.0,83,0.00,,---,0.00,VWS V14.01,2013-04-28 02:50:00,
2013-04-27 21:52:00,51.5,46.8,30.08,ESE,104,0.0,0.0,84,0.00,,---,0.00,VWS V14.01,2013-04-28 02:52:00,
2013-04-27 21:57:00,51.3,47.0,30.08,ESE,104,0.0,0.0,85,0.00,,---,0.00,VWS V14.01,2013-04-28 02:57:00,
2013-04-27 22:00:00,51.3,47.0,30.08,ESE,104,0.0,0.0,85,0.00,,---,0.00,VWS V14.01,2013-04-28 03:00:00,
2013-04-27 22:02:00,51.1,46.8,30.08,ESE,104,0.0,0.0,85,0.00,,---,0.00,VWS V14.01,2013-04-28 03:02:00,
2013-04-27 22:07:00,50.9,46.6,30.08,ESE,104,0.0,0.0,85,0.00,,---,0.00,VWS V14.01,2013-04-28 03:07:00,
2013-04-27 22:10:00,50.9,46.6,30.08,ESE,104,0.0,0.0,85,0.00,,---,0.00,VWS V14.01,2013-04-28 03:10:00,
2013-04-27 22:12:00,50.7,46.4,30.08,ESE,104,0.0,0.0,85,0.00,,---,0.00,VWS V14.01,2013-04-28 03:12:00,
2013-04-27 22:17:00,50.5,46.2,30.08,ESE,104,0.0,0.0,85,0.00,,---,0.00,VWS V14.01,2013-04-28 03:17:00,
2013-04-27 22:20:00,50.5,46.2,30.08,ESE,104,0.0,0.0,85,0.00,,---,0.00,VWS V14.01,2013-04-28 03:20:00,
2013-04-27 22:22:00,50.3,46.3,30.08,ESE,104,0.0,0.0,86,0.00,,---,0.00,VWS V14.01,2013-04-28 03:22:00,
2013-04-27 22:27:00,50.1,46.1,30.08,ESE,104,0.0,0.0,86,0.00,,---,0.00,VWS V14.01,2013-04-28 03:27:00,
2013-04-27 22:30:00,50.1,46.1,30.08,ESE,104,0.0,0.0,86,0.00,,---,0.00,VWS V14.01,2013-04-28 03:30:00,
2013-04-27 22:32:00,49.8,45.8,30.08,ESE,104,0.0,0.0,86,0.00,,---,0.00,VWS V14.01,2013-04-28 03:32:00,
2013-04-27 22:37:00,49.6,45.6,30.08,ESE,104,0.0,0.0,86,0.00,,---,0.00,VWS V14.01,2013-04-28 03:37:00,
2013-04-27 22:40:00,49.6,45.6,30.08,ESE,104,0.0,0.0,86,0.00,,---,0.00,VWS V14.01,2013-04-28 03:40:00,
2013-04-27 22:42:00,49.4,45.4,30.07,ESE,104,0.0,0.0,86,0.00,,---,0.00,VWS V14.01,2013-04-28 03:42:00,
2013-04-27 22:47:00,49.2,45.2,30.07,ESE,104,0.0,0.0,86,0.00,,---,0.00,VWS V14.01,2013-04-28 03:47:00,
2013-04-27 22:50:00,49.2,45.2,30.07,ESE,104,0.0,0.0,86,0.00,,---,0.00,VWS V14.01,2013-04-28 03:50:00,
2013-04-27 22:52:00,49.0,45.0,30.07,ESE,104,0.0,0.0,86,0.00,,---,0.00,VWS V14.01,2013-04-28 03:52:00,
2013-04-27 22:57:00,48.9,45.2,30.07,ESE,104,0.0,0.0,87,0.00,,---,0.00,VWS V14.01,2013-04-28 03:57:00,
2013-04-27 23:00:00,48.9,45.2,30.07,ESE,104,0.0,0.0,87,0.00,,---,0.00,VWS V14.01,2013-04-28 04:00:00,
2013-04-27 23:01:00,48.8,45.1,30.07,ESE,104,0.0,0.0,87,0.00,,---,0.00,VWS V14.01,2013-04-28 04:01:00,
2013-04-27 23:02:00,48.7,45.0,30.07,ESE,104,0.0,0.0,87,0.00,,---,0.00,VWS V14.01,2013-04-28 04:02:00,
2013-04-27 23:07:00,48.6,44.9,30.07,ESE,104,0.0,0.0,87,0.00,,---,0.00,VWS V14.01,2013-04-28 04:07:00,
2013-04-27 23:10:00,48.5,44.8,30.07,ESE,104,0.0,0.0,87,0.00,,---,0.00,VWS V14.01,2013-04-28 04:10:00,
2013-04-27 23:12:00,48.5,45.1,30.08,ESE,104,0.0,0.0,88,0.00,,---,0.00,VWS V14.01,2013-04-28 04:12:00,
2013-04-27 23:17:00,48.4,45.3,30.08,ESE,104,0.0,0.0,89,0.00,,---,0.00,VWS V14.01,2013-04-28 04:17:00,
2013-04-27 23:20:00,48.4,45.3,30.08,ESE,104,0.0,0.0,89,0.00,,---,0.00,VWS V14.01,2013-04-28 04:20:00,
2013-04-27 23:22:00,48.3,45.2,30.08,ESE,104,0.0,0.0,89,0.00,,---,0.00,VWS V14.01,2013-04-28 04:22:00,
2013-04-27 23:27:00,48.1,44.7,30.08,ESE,104,0.0,0.0,88,0.00,,---,0.00,VWS V14.01,2013-04-28 04:27:00,
2013-04-27 23:30:00,48.1,44.7,30.08,ESE,104,0.0,0.0,88,0.00,,---,0.00,VWS V14.01,2013-04-28 04:30:00,
2013-04-27 23:32:00,48.0,44.6,30.08,ESE,104,0.0,0.0,88,0.00,,---,0.00,VWS V14.01,2013-04-28 04:32:00,
2013-04-27 23:37:00,47.8,44.4,30.08,ESE,104,0.0,0.0,88,0.00,,---,0.00,VWS V14.01,2013-04-28 04:37:00,
2013-04-27 23:40:00,47.7,44.3,30.08,ESE,104,0.0,0.0,88,0.00,,---,0.00,VWS V14.01,2013-04-28 04:40:00,
2013-04-27 23:42:00,47.6,44.2,30.07,ESE,104,0.0,0.0,88,0.00,,---,0.00,VWS V14.01,2013-04-28 04:42:00,
2013-04-27 23:47:00,47.4,44.0,30.07,ESE,104,0.0,0.0,88,0.00,,---,0.00,VWS V14.01,2013-04-28 04:47:00,
2013-04-27 23:50:00,47.4,44.0,30.07,ESE,104,0.0,0.0,88,0.00,,---,0.00,VWS V14.01,2013-04-28 04:50:00,
2013-04-27 23:52:00,47.2,43.8,30.07,ESE,104,0.0,0.0,88,0.00,,---,0.00,VWS V14.01,2013-04-28 04:52:00,
2013-04-27 23:57:00,47.1,43.7,30.07,ESE,104,0.0,0.0,88,0.00,,---,0.00,VWS V14.01,2013-04-28 04:57:00,